Regional Weather Roundup
Issued by NWS Midland/Odessa, TX

Home | Current Version | Previous Version | Text Only | Print | Product List | Glossary On
Versions: 1 2 3 4 5 6 7 8 9 10 11 12 13 14 15 16 17 18 19 20 21 22 23 24 25 26 27 28 29 30 31 32 33 34 35 36 37 38 39 40 41 42 43 44 45 46 47 48 49 50
951
ASUS44 KMAF 140610
RWRMAF
MIDLAND AREA WEATHER ROUNDUP
NATIONAL WEATHER SERVICE MIDLAND TX
1200 AM CST SUN FEB 14 2016

...IN SOUTHWEST TEXAS AND SOUTHEAST NEW MEXICO...

CITY           SKY/WX    TMP DP  RH WIND       PRES   REMARKS
ALPINE         PTCLDY    56  12  17 W6        30.14F
ANDREWS        FAIR      56  40  56 S15G22    30.01S
ARTESIA        CLOUDY    52  16  24 W13       29.99F
BIG SPRING     CLEAR     55  38  53 S17G23    30.02F
CARLSBAD       CLOUDY    47  28  47 NE5       29.99R
DRYDEN           N/A     55  39  54 N8        30.02F
FORT STOCKTON  CLOUDY    56  40  55 S16       30.01F
GUAD PASS      CLOUDY    55   9  16 SW13      30.11F
HOBBS          CLEAR     48  34  57 S9        30.03S
MARFA          CLOUDY    36  13  38 N7        30.13S WCI  30
MIDLAND AIRPK  CLOUDY    59  41  51 S14       30.00F
MIDLAND INTL   CLOUDY    59  41  51 S16       30.00F
ODESSA         CLOUDY    59  40  49 S15       30.01F
PECOS          CLOUDY    43  29  57 W5        29.98F
PRESIDIO       FAIR      59  15  18 MISG      30.02S
SEMINOLE       CLEAR     54  42  64 SW12      30.01F
SNYDER           N/A     51  37  59 S10       30.00F
WINK           CLOUDY    53  42  66 SE9       29.99F
$$
...OTHER STATIONS IN TEXAS...

CITY           SKY/WX    TMP DP  RH WIND       PRES   REMARKS
ABILENE        CLEAR     58  40  51 S14       30.00F
AMARILLO       CLEAR     50  20  30 SW20G28   29.90F
AUSTIN         CLEAR     56  53  90 S8        30.14F
BROWNSVILLE    PTCLDY    64  60  87 SE10      30.15F
CORPUS CHRISTI PTCLDY    56  51  84 S8        30.15F
DALLAS FTW     PTCLDY    59  47  64 S18       30.04F
DEL RIO        CLEAR     60  46  59 SE12      30.06F
EL PASO        MOCLDY    56  11  16 CALM      30.04S
HOUSTON INT    CLOUDY    58  54  86 SE10      30.19F
LUBBOCK        CLEAR     56  38  50 S17G29    29.96F
SAN ANGELO     CLOUDY    59  44  57 S14G22    30.02F
SAN ANTONIO    PTCLDY    58  52  80 S8        30.14F
WACO           CLOUDY    59  54  83 S14       30.12S
WICHITA FALLS  NOT AVBL
$$
...OTHER LOCATIONS IN NEW MEXICO...

CITY           SKY/WX    TMP DP  RH WIND       PRES   REMARKS
ALAMAGORDO     CLOUDY    46  10  23 SE6       30.05F
ALBUQUERQUE    CLOUDY    52  16  24 N9        30.13R
CANNON AFB     CLEAR     49  20  31 W15       29.98F
CLOVIS         CLEAR     46  19  34 W13       29.98F
HOLLOMAN AFB   CLOUDY    49  11  21 SE8       30.03F
ROSWELL        CLOUDY    48  14  25 N6        29.98F
RUIDOSO          N/A     41   9  26 W8        30.17F WCI  36
SANTA FE       CLOUDY    40  16  37 N8        30.12S WCI  34
TRUTH OR CONSE PTCLDY    55  11  17 NW13      30.09S
TUCUMCARI      CLEAR     48  18  30 W14       29.94F
$$




USA.gov is the U.S. government's official web portal to all federal, state and local government web resources and services.